Weather in Puerto Maldonado

Peru     12°34′51″S   69°12′07″W
temp.,
°C
wind,
m/s
gust,
m/s
humid.,
%
clouds,
%
prec.,
mm/h
press.,
hPa
HPBL,
m
9 december, thu
thu901:00+22n1199100 2.5 100837
04:00+21ese00100100 4.4 100920
07:00+23s1197100 5.0 1011178
10:00+31sse1158100 0.0 10111264
13:00+27ese1292100 3.8 1008344
16:00+25e1197100 5.7 100635
19:00+23e0198100 6.1 100813
22:00+23e0099100 0.0 100914
10 december, fri
fri1001:00+23ssw0099100 0.8 100819
04:00+22wnw12100100 5.6 100790
07:00+23wsw13100100 10.7 1010116
10:00+23sw1399100 1.4 1010188
13:00+25sw118893 1.7 1007361
16:00+26w127393 0.0 1004213
19:00+24nnw117797 0.1 100511
22:00+23wnw118884 0.0 100714
11 december, sat
sat1101:00+23nw1488100 0.0 1005105
04:00+22nw1192100 0.0 100450
07:00+25wnw248094 0.0 1007407
10:00+30nnw135978 0.2 10061287
13:00+30n2457100 0.6 1002965
16:00+30nnw2660100 0.1 1000740
19:00+26nnw2873100 0.1 1003391
22:00+25nw2985100 0.6 1005428
12 december, sun
sun1201:00+24nw21087100 0.6 1003511
04:00+23wnw1890100 0.0 1003445
07:00+26nw297886 0.0 1006761
10:00+31nw495863 0.5 10051697
13:00+33nw3951100 2.1 10012284
16:00+32wnw285096 0.1 9991481
19:00+28nnw2761100 0.1 1002190
22:00+23nnw159970 2.9 1006121
13 december, mon
mon1301:00+22nw1699100 11.0 1004181
04:00+22nw1899100 2.8 1005249
07:00+25wnw299492 2.9 1008476
10:00+30nw396643 0.8 10071491
13:00+28w398566 4.5 10051278
16:00+33nw384885 0.9 10022065
19:00+28nw2106498 0.9 1005550
22:00+23wnw1498100 2.3 100893